timestamp,surface_pressure_avg,surface_temp_avg,battery_voltage,lat,long
2021-06-06 00:09:01+00:00,259.6564,9.7,12.97,47.84626,-54.09684
2021-06-06 00:19:01+00:00,253.5964,9.78,12.73,47.84626,-54.09684
2021-06-06 00:29:01+00:00,248.7097,10.06,12.73,47.84626,-54.09684
2021-06-06 00:39:01+00:00,243.2548,10.27,12.73,47.84626,-54.09684
2021-06-06 00:49:01+00:00,239.9048,10.4,12.73,47.84626,-54.09684
2021-06-06 00:59:01+00:00,238.1364,10.48,12.73,47.84626,-54.09684
2021-06-06 01:09:01+00:00,234.0514,10.5,12.73,47.84626,-54.09684
2021-06-06 01:19:01+00:00,229.7298,10.53,12.73,47.84626,-54.09684
2021-06-06 01:29:01+00:00,227.8514,10.5,12.73,47.84626,-54.09684
2021-06-06 01:39:01+00:00,223.3398,10.5,12.73,47.84626,-54.09684
2021-06-06 01:49:01+00:00,221.6797,10.5,12.73,47.84626,-54.09684
2021-06-06 01:59:01+00:00,218.9948,10.49,12.73,47.84626,-54.09684
2021-06-06 02:09:01+00:00,214.3498,10.4,12.73,47.84626,-54.09684
2021-06-06 02:19:00+00:00,210.6881,10.4,12.73,47.84626,-54.09684
2021-06-06 02:29:00+00:00,209.3064,10.37,12.73,47.84626,-54.09684
2021-06-06 02:39:00+00:00,210.2164,10.3,12.73,47.84626,-54.09684
2021-06-06 02:49:00+00:00,213.1981,10.3,12.73,47.84626,-54.09684
2021-06-06 02:59:00+00:00,215.4831,10.38,12.73,47.84626,-54.09684
2021-06-06 03:09:00+00:00,217.4914,10.48,12.73,47.84626,-54.09684
2021-06-06 03:19:00+00:00,217.1147,10.5,12.65,47.84626,-54.09684
2021-06-06 03:29:00+00:00,216.6765,10.52,12.65,47.84626,-54.09684
2021-06-06 03:39:00+00:00,216.8315,10.5,12.65,47.84626,-54.09684
2021-06-06 03:49:00+00:00,216.4964,10.4,12.65,47.84626,-54.09684
2021-06-06 03:59:00+00:00,218.4248,10.3,12.65,47.84626,-54.09684
2021-06-06 04:09:00+00:00,223.3165,10.3,12.65,47.84626,-54.09684
2021-06-06 04:19:00+00:00,224.7531,10.29,12.65,47.84626,-54.09684
2021-06-06 04:29:00+00:00,221.8365,10.28,12.65,47.84626,-54.09684
2021-06-06 04:39:00+00:00,224.9148,10.3,12.65,47.84626,-54.09684
2021-06-06 04:49:00+00:00,229.5048,10.3,12.65,47.84626,-54.09684
2021-06-06 04:59:00+00:00,232.0098,10.28,12.65,47.84626,-54.09684
2021-06-06 05:09:00+00:00,229.1514,10.27,12.65,47.84626,-54.09684
2021-06-06 05:19:01+00:00,231.4998,10.2,12.65,47.84626,-54.09684
2021-06-06 05:29:01+00:00,238.7248,10.0,12.65,47.84626,-54.09684
2021-06-06 05:39:01+00:00,243.2748,9.85,12.65,47.84626,-54.09684
2021-06-06 05:49:01+00:00,244.2414,9.9,12.65,47.84626,-54.09684
2021-06-06 05:59:01+00:00,247.7148,9.9,12.65,47.84626,-54.09684
2021-06-06 06:09:01+00:00,256.0764,9.9,12.65,47.84626,-54.09684
2021-06-06 06:19:00+00:00,263.9964,9.8,12.65,47.84626,-54.09684
2021-06-06 06:29:00+00:00,268.7415,9.7,12.65,47.84626,-54.09684
2021-06-06 06:39:00+00:00,266.8764,9.7,12.65,47.84626,-54.09684
2021-06-06 06:49:00+00:00,275.0331,9.7,12.65,47.84626,-54.09684
2021-06-06 06:59:00+00:00,285.3831,9.5,12.65,47.84626,-54.09684
2021-06-06 07:09:00+00:00,289.1464,9.5,12.65,47.84626,-54.09684
2021-06-06 07:19:01+00:00,289.8464,9.49,12.65,47.84626,-54.09684
2021-06-06 07:29:01+00:00,298.4714,9.5,12.65,47.84626,-54.09684
2021-06-06 07:39:01+00:00,299.9264,9.41,12.65,47.84626,-54.09684
2021-06-06 07:49:01+00:00,300.7747,9.48,12.65,47.84626,-54.09684
2021-06-06 07:59:01+00:00,308.6597,9.5,12.65,47.84626,-54.09684
2021-06-06 08:09:01+00:00,316.4247,9.5,12.65,47.84626,-54.09684
2021-06-06 08:19:00+00:00,317.1797,9.6,12.65,47.84626,-54.09684
2021-06-06 08:29:00+00:00,315.743,9.6,12.65,47.84626,-54.09684
2021-06-06 08:39:00+00:00,317.6046,9.5,12.65,47.84626,-54.09684
2021-06-06 08:49:00+00:00,321.4713,9.4,12.65,47.84626,-54.09684
2021-06-06 08:59:00+00:00,319.27299999999997,9.4,12.65,47.84626,-54.09684
2021-06-06 09:09:00+00:00,317.163,9.4,12.65,47.84626,-54.09684
2021-06-06 09:19:00+00:00,317.3013,9.39,12.65,47.84626,-54.09684
2021-06-06 09:29:00+00:00,316.793,9.38,12.65,47.84626,-54.09684
2021-06-06 09:39:00+00:00,313.8796,9.47,12.65,47.84626,-54.09684
2021-06-06 09:49:00+00:00,317.923,9.52,12.65,47.84626,-54.09684
2021-06-06 09:59:00+00:00,315.303,9.6,12.65,47.84626,-54.09684
2021-06-06 10:09:00+00:00,309.1746,9.6,12.65,47.84626,-54.09684
2021-06-06 10:19:00+00:00,307.1114,9.64,12.73,47.84626,-54.09684
2021-06-06 10:29:00+00:00,311.323,9.7,12.73,47.84626,-54.09684
2021-06-06 10:39:00+00:00,305.9913,9.8,12.73,47.84626,-54.09684
2021-06-06 10:49:00+00:00,299.3531,9.88,12.73,47.84626,-54.09684
2021-06-06 10:59:00+00:00,296.9964,9.8,12.73,47.84626,-54.09684
2021-06-06 11:09:00+00:00,295.5847,9.8,12.73,47.84626,-54.09684
2021-06-06 11:19:01+00:00,287.2797,9.9,13.21,47.84626,-54.09684
2021-06-06 11:29:01+00:00,283.3514,10.04,13.21,47.84626,-54.09684
2021-06-06 11:39:01+00:00,282.268,10.1,13.21,47.84626,-54.09684
2021-06-06 11:49:01+00:00,278.7598,10.0,13.21,47.84626,-54.09684
2021-06-06 11:59:01+00:00,269.9131,10.25,13.21,47.84626,-54.09684
2021-06-06 12:09:01+00:00,266.3031,10.4,13.21,47.84626,-54.09684
2021-06-06 12:19:01+00:00,261.9214,10.4,13.13,47.84626,-54.09684
2021-06-06 12:29:01+00:00,249.8748,10.49,13.13,47.84626,-54.09684
2021-06-06 12:39:01+00:00,240.6097,10.58,13.13,47.84626,-54.09684
2021-06-06 12:49:01+00:00,241.2765,10.5,13.13,47.84626,-54.09684
2021-06-06 12:59:01+00:00,238.8297,10.45,13.13,47.84626,-54.09684
2021-06-06 13:09:01+00:00,228.6081,10.56,13.13,47.84626,-54.09684
2021-06-06 13:19:01+00:00,223.5098,10.62,13.29,47.84626,-54.09684
2021-06-06 13:29:01+00:00,222.2031,10.6,13.29,47.84626,-54.09684
2021-06-06 13:39:01+00:00,219.5081,10.5,13.29,47.84626,-54.09684
2021-06-06 13:49:01+00:00,213.8981,10.4,13.29,47.84626,-54.09684
2021-06-06 13:59:01+00:00,210.1481,10.4,13.29,47.84626,-54.09684
2021-06-06 14:09:01+00:00,210.2997,10.4,13.29,47.84626,-54.09684
2021-06-06 14:19:01+00:00,210.0964,10.4,13.53,47.84626,-54.09684
2021-06-06 14:29:01+00:00,207.9631,10.3,13.53,47.84626,-54.09684
2021-06-06 14:39:01+00:00,206.1048,10.29,13.53,47.84626,-54.09684
2021-06-06 14:49:01+00:00,202.9081,10.2,13.53,47.84626,-54.09684
2021-06-06 14:59:01+00:00,203.6531,10.2,13.53,47.84626,-54.09684
2021-06-06 15:09:01+00:00,205.6615,10.17,13.53,47.84626,-54.09684
2021-06-06 15:19:00+00:00,203.4865,10.2,13.6,47.84626,-54.09684
2021-06-06 15:29:00+00:00,204.9131,10.27,13.6,47.84626,-54.09684
2021-06-06 15:39:00+00:00,206.3031,10.2,13.6,47.84626,-54.09684
2021-06-06 15:49:00+00:00,206.8931,10.1,13.6,47.84626,-54.09684
2021-06-06 15:59:00+00:00,207.0681,10.1,13.6,47.84626,-54.09684
2021-06-06 16:09:00+00:00,209.3131,10.1,13.6,47.84626,-54.09684
2021-06-06 16:19:01+00:00,213.0998,10.07,14.32,47.84626,-54.09684
2021-06-06 16:29:01+00:00,217.3931,10.06,14.32,47.84626,-54.09684
2021-06-06 16:39:01+00:00,221.9614,10.1,14.32,47.84626,-54.09684
2021-06-06 16:49:01+00:00,226.0731,10.1,14.32,47.84626,-54.09684
2021-06-06 16:59:01+00:00,232.6381,10.09,14.32,47.84626,-54.09684
2021-06-06 17:09:01+00:00,236.1048,10.04,14.32,47.84626,-54.09684
2021-06-06 17:19:01+00:00,236.0997,10.06,14.0,47.84626,-54.09684
2021-06-06 17:29:01+00:00,240.8264,10.07,14.0,47.84626,-54.09684
2021-06-06 17:39:01+00:00,245.0364,10.08,14.0,47.84626,-54.09684
2021-06-06 17:49:01+00:00,245.3497,10.14,14.0,47.84626,-54.09684
2021-06-06 17:59:01+00:00,247.0898,10.23,14.0,47.84626,-54.09684
2021-06-06 18:09:01+00:00,252.5514,10.27,14.0,47.84626,-54.09684
2021-06-06 18:19:01+00:00,260.3297,10.28,14.08,47.84626,-54.09684
2021-06-06 18:29:01+00:00,265.858,10.36,14.08,47.84626,-54.09684
2021-06-06 18:39:01+00:00,271.3747,10.57,14.08,47.84626,-54.09684
2021-06-06 18:49:01+00:00,277.2281,10.7,14.08,47.84626,-54.09684
2021-06-06 18:59:01+00:00,281.618,10.89,14.08,47.84626,-54.09684
2021-06-06 19:09:01+00:00,286.3564,10.9,14.08,47.84626,-54.09684
2021-06-06 19:19:01+00:00,296.6164,10.9,14.0,47.84626,-54.09684
2021-06-06 19:29:01+00:00,302.1296,10.9,14.0,47.84626,-54.09684
2021-06-06 19:39:01+00:00,303.8013,10.95,14.0,47.84626,-54.09684
2021-06-06 19:49:01+00:00,306.3447,11.0,14.0,47.84626,-54.09684
2021-06-06 19:59:01+00:00,313.0396,11.06,14.0,47.84626,-54.09684
2021-06-06 20:09:01+00:00,317.1047,11.19,14.0,47.84626,-54.09684
2021-06-06 20:19:00+00:00,319.198,11.29,13.92,47.84626,-54.09684
2021-06-06 20:29:00+00:00,321.7013,11.35,13.92,47.84626,-54.09684
2021-06-06 20:39:00+00:00,327.1497,11.42,13.92,47.84626,-54.09684
2021-06-06 20:49:00+00:00,332.3063,11.6,13.92,47.84626,-54.09684
2021-06-06 20:59:00+00:00,334.5264,11.79,13.92,47.84626,-54.09684
2021-06-06 21:09:00+00:00,333.3446,11.9,13.92,47.84626,-54.09684
2021-06-06 21:19:01+00:00,334.4346,12.0,13.84,47.84626,-54.09684
2021-06-06 21:29:01+00:00,334.5831,12.06,13.84,47.84626,-54.09684
2021-06-06 21:39:01+00:00,334.1497,12.1,13.84,47.84626,-54.09684
2021-06-06 21:49:01+00:00,335.6897,12.18,13.84,47.84626,-54.09684
2021-06-06 21:59:01+00:00,336.903,12.2,13.84,47.84626,-54.09684
2021-06-06 22:09:01+00:00,336.5363,12.29,13.84,47.84626,-54.09684
2021-06-06 22:19:01+00:00,334.3113,11.95,13.68,47.84626,-54.09684
2021-06-06 22:29:01+00:00,331.6779,11.74,13.68,47.84626,-54.09684
2021-06-06 22:39:01+00:00,331.3697,11.15,13.68,47.84626,-54.09684
2021-06-06 22:49:01+00:00,330.9896,10.33,13.68,47.84626,-54.09684
2021-06-06 22:59:01+00:00,326.9563,10.52,13.68,47.84626,-54.09684
2021-06-06 23:09:01+00:00,323.383,11.59,13.68,47.84626,-54.09684
2021-06-06 23:19:01+00:00,318.6147,11.71,13.37,47.84626,-54.09684
2021-06-06 23:29:01+00:00,314.108,11.88,13.37,47.84626,-54.09684
2021-06-06 23:39:01+00:00,310.403,10.84,13.37,47.84626,-54.09684
2021-06-06 23:49:01+00:00,306.8714,10.1,13.37,47.84626,-54.09684
2021-06-06 23:59:01+00:00,301.2564,9.88,13.37,47.84626,-54.09684
